Date String (YYYY-MM-DD hh:mm:ss) UTC,Instrument flags,Ambient pressure (hPa),Sample flow (lpm),Bypass flow (lpm),Sample temperature (°C),Ambient temperature (°C),ASC tube jacket temperature (°C),LED temperature (°C),Box temperature (°C),Sample RH (%),Span deviation,Mass concentration (μg/m³),Mass concentration (μg/m³),Mass concentration (μg/m³)
DateTimeUTC,F1_M11,P_M11,Q1_M11,Q2_M11,T1_M11,T2_M11,T3_M11,T4_M11,T5_M11,U1_M11,ZSPAN_M11,X0_M11,X2_M11,X1_M11
2023-01-23 04:00:00,,0822.2,5.01,0.00,23.9,22.4,00.0,32.7,25.7,10.2,0001.3,0016.15,0008.76,0007.99
2023-01-23 04:01:00,,0822.2,5.01,0.00,23.9,22.4,00.0,32.7,25.7,10.2,0000.5,0016.27,0008.81,0008.05
2023-01-23 04:02:00,,0822.2,5.01,0.00,23.9,22.4,00.0,32.7,25.7,10.3,0000.3,0016.40,0008.91,0008.13
2023-01-23 04:03:00,,0822.2,5.01,0.00,23.9,22.4,00.0,32.7,25.6,10.3,0001.1,0016.21,0009.04,0008.25
2023-01-23 04:04:00,,0822.2,4.97,0.00,23.9,22.4,00.0,32.7,25.6,10.3,0001.3,0016.47,0009.16,0008.37
2023-01-23 04:05:00,,0822.2,5.00,0.00,23.9,22.4,00.0,32.7,25.6,10.3,0000.7,0017.07,0009.33,0008.50
2023-01-23 04:06:00,,0822.2,5.00,0.00,23.9,22.4,00.0,32.7,25.6,10.4,0000.8,0017.46,0009.52,0008.68
2023-01-23 04:07:00,,0822.2,5.02,0.00,23.9,22.4,00.0,32.7,25.6,10.4,0000.3,0017.42,0009.74,0008.92
2023-01-23 04:08:00,,0822.2,4.99,0.00,23.8,22.4,00.0,32.7,25.6,10.4,-001.0,0017.29,0010.00,0009.16
2023-01-23 04:09:00,,0822.3,5.00,0.00,23.8,22.4,00.0,32.6,25.6,10.5,-001.1,0017.37,0010.27,0009.45
2023-01-23 04:10:00,,0822.3,5.01,0.00,23.8,22.4,00.0,32.6,25.6,10.5,-000.2,0018.15,0010.47,0009.71
2023-01-23 04:11:00,,0822.4,5.00,0.00,23.8,22.4,00.0,32.6,25.6,10.5,0000.4,0018.50,0010.74,0009.96
2023-01-23 04:12:00,,0822.4,4.99,0.00,23.8,22.4,00.0,32.6,25.6,10.5,0001.2,0018.63,0010.96,0010.18
2023-01-23 04:13:00,,0822.3,5.00,0.00,23.8,22.3,00.0,32.6,25.6,10.5,0001.3,0018.89,0011.18,0010.39
2023-01-23 04:14:00,,0822.4,5.01,0.00,23.8,22.3,00.0,32.6,25.6,10.5,0001.2,0019.10,0011.34,0010.54
2023-01-23 04:15:00,,0822.4,5.02,0.00,23.8,22.3,00.0,32.6,25.6,10.6,0001.1,0019.97,0011.50,0010.74
2023-01-23 04:16:00,,0822.4,5.01,0.00,23.8,22.3,00.0,32.6,25.6,10.6,0000.8,0020.10,0011.67,0010.96
2023-01-23 04:17:00,,0822.4,4.96,0.00,23.8,22.3,00.0,32.6,25.6,10.7,0000.3,0020.84,0011.84,0011.14
2023-01-23 04:18:00,,0822.4,4.99,0.00,23.8,22.3,00.0,32.6,25.5,10.7,0000.4,0021.56,0011.98,0011.26
2023-01-23 04:19:00,,0822.3,5.00,0.00,23.8,22.3,00.0,32.6,25.5,10.7,0000.4,0021.51,0012.03,0011.32
2023-01-23 04:20:00,,0822.4,5.03,0.00,23.8,22.3,00.0,32.6,25.5,10.7,0000.1,0021.62,0012.11,0011.40
2023-01-23 04:21:00,,0822.3,5.00,0.00,23.8,22.3,00.0,32.6,25.5,10.7,0000.1,0021.14,0012.18,0011.48
2023-01-23 04:22:00,,0822.4,5.02,0.00,23.8,22.3,00.0,32.6,25.5,10.8,0000.1,0020.68,0012.23,0011.56
2023-01-23 04:23:00,,0822.3,4.99,0.00,23.7,22.3,00.0,32.6,25.5,10.8,-000.3,0021.15,0012.30,0011.64
2023-01-23 04:24:00,,0822.4,5.00,0.00,23.7,22.3,00.0,32.5,25.5,10.7,-000.5,0022.24,0012.34,0011.72
2023-01-23 04:25:00,,0822.4,5.00,0.00,23.7,22.3,00.0,32.5,25.5,10.7,-000.6,0023.08,0012.48,0011.84
2023-01-23 04:26:00,,0822.4,5.00,0.00,23.7,22.3,00.0,32.5,25.5,10.7,-000.2,0023.31,0012.60,0011.91
2023-01-23 04:27:00,,0822.4,4.98,0.00,23.7,22.2,00.0,32.5,25.5,10.7,0000.1,0023.74,0012.68,0011.94
2023-01-23 04:28:00,,0822.4,5.00,0.00,23.7,22.2,00.0,32.5,25.5,10.7,0000.4,0023.95,0012.71,0011.94
2023-01-23 04:29:00,,0822.4,4.98,0.00,23.7,22.2,00.0,32.5,25.5,10.8,0000.2,0023.86,0012.76,0011.99
2023-01-23 04:30:00,,0822.4,5.01,0.00,23.7,22.2,00.0,32.5,25.5,10.8,0001.1,0023.91,0012.80,0012.05
2023-01-23 04:31:00,,0822.4,5.01,0.00,23.7,22.2,00.0,32.5,25.5,10.8,0001.6,0024.25,0012.82,0012.07
2023-01-23 04:32:00,,0822.4,4.98,0.00,23.7,22.2,00.0,32.5,25.5,10.7,0001.1,0024.58,0012.87,0012.05
2023-01-23 04:33:00,,0822.4,5.02,0.00,23.7,22.2,00.0,32.5,25.5,10.8,0000.9,0024.98,0012.93,0012.09
2023-01-23 04:34:00,,0822.5,5.00,0.00,23.7,22.2,00.0,32.5,25.5,10.8,0001.1,0024.37,0012.95,0012.14
2023-01-23 04:35:00,,0822.5,4.99,0.00,23.7,22.2,00.0,32.5,25.5,10.8,0001.5,0024.96,0012.93,0012.16
2023-01-23 04:36:00,,0822.4,5.01,0.00,23.7,22.2,00.0,32.5,25.5,10.8,0001.4,0024.40,0012.87,0012.16
2023-01-23 04:37:00,,0822.4,5.01,0.00,23.7,22.2,00.0,32.5,25.5,10.7,0000.5,0025.12,0012.78,0012.10
2023-01-23 04:38:00,,0822.4,5.01,0.00,23.7,22.2,00.0,32.5,25.5,10.7,0000.3,0025.49,0012.75,0012.05
2023-01-23 04:39:00,,0822.4,5.00,0.00,23.6,22.2,00.0,32.5,25.5,10.7,0000.5,0025.23,0012.72,0012.04
2023-01-23 04:40:00,,0822.4,5.01,0.00,23.6,22.2,00.0,32.4,25.5,10.7,0000.7,0025.09,0012.66,0011.97
2023-01-23 04:41:00,,0822.4,5.00,0.00,23.6,22.2,00.0,32.4,25.5,10.7,0000.4,0026.04,0012.63,0011.93
2023-01-23 04:42:00,,0822.5,5.01,0.00,23.6,22.2,00.0,32.4,25.5,10.8,0000.3,0026.00,0012.64,0011.89
2023-01-23 04:43:00,,0822.6,5.00,0.00,23.6,22.1,00.0,32.4,25.4,10.8,0000.7,0026.08,0012.69,0011.91
2023-01-23 04:44:00,,0822.6,4.99,0.00,23.6,22.1,00.0,32.4,25.4,10.8,0000.4,0025.88,0012.70,0011.89
2023-01-23 04:45:00,,0822.5,4.99,0.00,23.6,22.1,00.0,32.4,25.4,10.8,0000.2,0025.98,0012.72,0011.86
2023-01-23 04:46:00,,0822.6,5.01,0.00,23.6,22.1,00.0,32.4,25.4,10.8,0000.3,0024.59,0012.74,0011.83
2023-01-23 04:47:00,,0822.6,5.00,0.00,23.6,22.1,00.0,32.4,25.3,10.8,0000.9,0024.89,0012.75,0011.79
2023-01-23 04:48:00,,0822.6,5.00,0.00,23.6,22.0,00.0,32.4,25.3,10.8,0000.9,0025.05,0012.78,0011.76
2023-01-23 04:49:00,,0822.6,5.00,0.00,23.5,22.0,00.0,32.4,25.3,10.8,0001.0,0025.19,0012.74,0011.72
2023-01-23 04:50:00,,0822.6,5.00,0.00,23.5,22.0,00.0,32.4,25.2,10.7,0000.6,0024.23,0012.65,0011.62
2023-01-23 04:51:00,,0822.6,4.98,0.00,23.5,22.0,00.0,32.3,25.2,10.7,0000.3,0024.08,0012.57,0011.49
2023-01-23 04:52:00,,0822.6,4.99,0.00,23.5,21.9,00.0,32.3,25.2,10.6,-000.3,0023.54,0012.45,0011.36
2023-01-23 04:53:00,,0822.6,4.98,0.00,23.4,21.9,00.0,32.3,25.2,10.6,0000.0,0023.57,0012.26,0011.18
2023-01-23 04:54:00,,0822.6,5.01,0.00,23.4,21.9,00.0,32.3,25.1,10.6,-000.4,0023.27,0011.97,0010.96
2023-01-23 04:55:00,,0822.6,5.00,0.00,23.4,21.9,00.0,32.3,25.1,10.7,-000.0,0023.09,0011.76,0010.74
2023-01-23 04:56:00,,0822.6,4.99,0.00,23.4,21.9,00.0,32.3,25.1,10.7,0000.5,0022.86,0011.55,0010.52
2023-01-23 04:57:00,,0822.6,5.01,0.00,23.4,21.8,00.0,32.3,25.1,10.7,0001.0,0023.01,0011.36,0010.33
2023-01-23 04:58:00,,0822.6,5.00,0.00,23.4,21.8,00.0,32.3,25.1,10.7,0000.3,0024.09,0011.25,0010.17
2023-01-23 04:59:00,,0822.6,5.00,0.00,23.4,21.8,00.0,32.2,25.1,10.7,0000.2,0024.22,0011.16,0010.06
